| time (UTC) | temp F | wind direction | speed MPH | gust MPH | rain 1hr in | rain 24hr in | rain mn in | humidity % | barometer mb |
| 20260905084542 | 70 | 30 | 2.0 | 5.0 | 0.00 | 0.29 | 0.00 | 84 | 1014.0 |
| 20260905083049 | 70 | 0 | 1.0 | 3.0 | 0.00 | 0.29 | 0.00 | 84 | 1014.0 |
| 20260905081600 | 70 | 27 | 0.0 | 3.0 | 0.00 | 0.29 | 0.00 | 85 | 1013.9 |
| 20260905080041 | 70 | 0 | 0.0 | 5.0 | 0.00 | 0.29 | 0.00 | 85 | 1013.9 |
| 20260905074542 | 70 | 0 | 1.0 | 2.0 | 0.00 | 0.30 | 0.00 | 85 | 1014.0 |
| 20260905073045 | 70 | 0 | 0.0 | 1.0 | 0.00 | 0.30 | 0.00 | 85 | 1013.9 |
| 20260905071543 | 70 | 0 | 0.0 | 3.0 | 0.00 | 0.30 | 0.00 | 86 | 1013.9 |
| 20260905070050 | 70 | 0 | 0.0 | 0.0 | 0.00 | 0.30 | 0.00 | 86 | 1013.8 |
| 20260905064550 | 70 | 0 | 0.0 | 0.0 | 0.00 | 0.30 | 0.00 | 86 | 1013.9 |
| 20260905063052 | 71 | 0 | 0.0 | 0.0 | 0.00 | 0.30 | 0.00 | 86 | 1013.9 |
| 20260905061545 | 71 | 0 | 0.0 | 0.0 | 0.00 | 0.30 | 0.00 | 86 | 1014.0 |
| 20260905060040 | 71 | 0 | 0.0 | 3.0 | 0.00 | 0.30 | 0.00 | 86 | 1014.2 |
| 20260905054551 | 71 | 0 | 1.0 | 3.0 | 0.00 | 0.30 | 0.00 | 86 | 1014.1 |
| 20260905053044 | 71 | 0 | 0.0 | 0.0 | 0.00 | 0.30 | 0.00 | 86 | 1013.7 |
| 20260905051544 | 71 | 0 | 0.0 | 0.0 | 0.00 | 0.30 | 0.00 | 87 | 1014.0 |
| 20260905050042 | 72 | 0 | 0.0 | 0.0 | 0.00 | 0.30 | 0.00 | 87 | 1014.0 |
| 20260905044540 | 72 | 0 | 0.0 | 0.0 | 0.00 | 0.30 | 0.30 | 87 | 1014.2 |
| 20260905043044 | 72 | 0 | 0.0 | 1.0 | 0.00 | 0.30 | 0.30 | 86 | 1014.6 |
| 20260905041543 | 72 | 0 | 0.0 | 2.0 | 0.00 | 0.30 | 0.30 | 86 | 1014.5 |
| 20260905040055 | 71 | 0 | 0.0 | 2.0 | 0.00 | 0.30 | 0.30 | 86 | 1014.3 |
| 20260905034545 | 71 | 0 | 0.0 | 0.0 | 0.00 | 0.30 | 0.30 | 87 | 1014.0 |
| 20260905033050 | 71 | 0 | 0.0 | 0.0 | 0.00 | 0.30 | 0.30 | 87 | 1014.2 |
| 20260905031551 | 71 | 0 | 0.0 | 0.0 | 0.00 | 0.30 | 0.30 | 87 | 1014.2 |
| 20260905030048 | 72 | 0 | 0.0 | 0.0 | 0.00 | 0.30 | 0.30 | 87 | 1014.6 |
| 20260905024542 | 72 | 0 | 0.0 | 0.0 | 0.00 | 0.30 | 0.30 | 87 | 1014.5 |
| 20260905023043 | 72 | 0 | 0.0 | 1.0 | 0.00 | 0.30 | 0.30 | 87 | 1014.4 |
| 20260905021549 | 72 | 0 | 0.0 | 2.0 | 0.00 | 0.30 | 0.30 | 87 | 1014.4 |
| 20260905020040 | 73 | 0 | 0.0 | 3.0 | 0.00 | 0.30 | 0.30 | 87 | 1014.5 |
| 20260905014543 | 73 | 77 | 1.0 | 4.0 | 0.00 | 0.30 | 0.30 | 87 | 1014.5 |
| 20260905013047 | 73 | 75 | 2.0 | 3.0 | 0.00 | 0.30 | 0.30 | 87 | 1014.5 |
| 20260905011543 | 74 | 0 | 0.0 | 2.0 | 0.00 | 0.30 | 0.30 | 87 | 1014.4 |
| 20260905010045 | 74 | 75 | 1.0 | 2.0 | 0.00 | 0.30 | 0.30 | 87 | 1014.1 |
| 20260905004609 | 75 | 77 | 1.0 | 4.0 | 0.00 | 0.30 | 0.30 | 86 | 1013.7 |
| 20260905003049 | 75 | 74 | 1.0 | 3.0 | 0.00 | 0.30 | 0.30 | 84 | 1013.6 |
| 20260905001544 | 76 | 0 | 1.0 | 3.0 | 0.00 | 0.30 | 0.30 | 84 | 1013.6 |
| 20260905000043 | 76 | 76 | 1.0 | 2.0 | 0.00 | 0.30 | 0.30 | 83 | 1013.6 |
| 20260904234550 | 76 | 0 | 0.0 | 4.0 | 0.00 | 0.30 | 0.30 | 83 | 1013.5 |
| 20260904233045 | 77 | 69 | 2.0 | 6.0 | 0.00 | 0.30 | 0.30 | 82 | 1013.2 |
| 20260904231546 | 77 | 51 | 1.0 | 5.0 | 0.00 | 0.30 | 0.30 | 82 | 1013.1 |
| 20260904224541 | 78 | 51 | 1.0 | 5.0 | 0.00 | 0.30 | 0.30 | 80 | 1013.2 |
| 20260904223050 | 78 | 70 | 2.0 | 7.0 | 0.00 | 0.30 | 0.30 | 80 | 1013.2 |
| 20260904221543 | 78 | 82 | 4.0 | 7.0 | 0.00 | 0.30 | 0.30 | 79 | 1013.2 |
| 20260904220044 | 78 | 86 | 3.0 | 6.0 | 0.00 | 0.30 | 0.30 | 80 | 1013.2 |
| 20260904214548 | 78 | 33 | 4.0 | 7.0 | 0.00 | 0.30 | 0.30 | 79 | 1013.2 |
| 20260904213044 | 80 | 70 | 4.0 | 8.0 | 0.00 | 0.30 | 0.30 | 74 | 1013.0 |
| 20260904211549 | 87 | 80 | 3.0 | 6.0 | 0.00 | 0.30 | 0.30 | 65 | 1012.9 |
| 20260904210048 | 87 | 328 | 0.0 | 4.0 | 0.00 | 0.30 | 0.30 | 70 | 1012.8 |
| 20260904204543 | 85 | 238 | 4.0 | 12.0 | 0.00 | 0.30 | 0.30 | 71 | 1012.4 |
| 20260904203044 | 84 | 245 | 3.0 | 12.0 | 0.00 | 0.30 | 0.30 | 75 | 1012.2 |
| 20260904201547 | 83 | 213 | 4.0 | 13.0 | 0.00 | 0.30 | 0.30 | 75 | 1012.4 |
| 20260904200048 | 83 | 262 | 5.0 | 11.0 | 0.00 | 0.30 | 0.30 | 74 | 1012.5 |
| 20260904194544 | 83 | 252 | 4.0 | 14.0 | 0.00 | 0.30 | 0.30 | 76 | 1012.7 |
| 20260904193043 | 82 | 219 | 6.0 | 18.0 | 0.00 | 0.30 | 0.30 | 75 | 1012.9 |
| 20260904191543 | 80 | 239 | 6.0 | 12.0 | 0.00 | 0.30 | 0.30 | 77 | 1013.0 |
| 20260904190046 | 81 | 191 | 7.0 | 14.0 | 0.00 | 0.30 | 0.30 | 78 | 1013.0 |
| 20260904184544 | 80 | 237 | 4.0 | 12.0 | 0.00 | 0.30 | 0.30 | 81 | 1013.1 |
| 20260904183044 | 77 | 212 | 6.0 | 14.0 | 0.00 | 0.30 | 0.30 | 84 | 1013.4 |
| 20260904181543 | 74 | 263 | 3.0 | 11.0 | 0.00 | 0.30 | 0.30 | 86 | 1013.7 |
| 20260904180045 | 73 | 218 | 4.0 | 9.0 | 0.00 | 0.30 | 0.30 | 87 | 1013.7 |
| 20260904174542 | 73 | 192 | 4.0 | 11.0 | 0.00 | 0.46 | 0.30 | 87 | 1013.5 |
| 20260904173047 | 72 | 226 | 4.0 | 10.0 | 0.00 | 0.46 | 0.30 | 87 | 1013.5 |
| 20260904171544 | 71 | 197 | 4.0 | 11.0 | 0.00 | 0.46 | 0.30 | 87 | 1013.6 |
| 20260904170045 | 70 | 219 | 3.0 | 6.0 | 0.01 | 0.46 | 0.30 | 86 | 1013.6 |
| 20260904164550 | 69 | 208 | 3.0 | 7.0 | 0.02 | 0.56 | 0.30 | 86 | 1013.7 |
| 20260904163046 | 69 | 240 | 4.0 | 10.0 | 0.16 | 0.56 | 0.30 | 86 | 1014.1 |
| 20260904161545 | 69 | 203 | 3.0 | 10.0 | 0.16 | 0.56 | 0.30 | 86 | 1014.3 |
| 20260904160047 | 68 | 216 | 4.0 | 9.0 | 0.15 | 0.55 | 0.29 | 86 | 1015.0 |
| 20260904154549 | 68 | 226 | 6.0 | 12.0 | 0.14 | 0.58 | 0.28 | 86 | 1015.1 |
| 20260904153058 | 69 | 248 | 4.0 | 10.0 | 0.01 | 0.44 | 0.14 | 86 | 1016.7 |
| 20260904151543 | 69 | 0 | 0.0 | 6.0 | 0.03 | 0.44 | 0.14 | 85 | 1016.3 |
| 20260904150048 | 68 | 116 | 2.0 | 10.0 | 0.10 | 0.44 | 0.14 | 85 | 1016.1 |
| 20260904144551 | 68 | 67 | 4.0 | 9.0 | 0.11 | 0.44 | 0.14 | 86 | 1016.2 |
| 20260904143046 | 68 | 56 | 3.0 | 7.0 | 0.10 | 0.43 | 0.13 | 87 | 1016.8 |
| 20260904141539 | 68 | 65 | 3.0 | 13.0 | 0.08 | 0.41 | 0.11 | 87 | 1017.0 |
| 20260904140052 | 70 | 54 | 6.0 | 10.0 | 0.01 | 0.34 | 0.04 | 87 | 1017.1 |
| 20260904134547 | 70 | 319 | 3.0 | 10.0 | 0.00 | 0.33 | 0.03 | 86 | 1018.3 |
| 20260904133044 | 70 | 34 | 5.0 | 13.0 | 0.00 | 0.33 | 0.03 | 86 | 1017.6 |
| 20260904131543 | 70 | 267 | 4.0 | 20.0 | 0.00 | 0.33 | 0.03 | 86 | 1016.3 |
| 20260904130057 | 69 | 0 | 0.0 | 7.0 | 0.00 | 0.33 | 0.03 | 87 | 1015.6 |
| 20260904124553 | 69 | 77 | 4.0 | 9.0 | 0.00 | 0.34 | 0.03 | 87 | 1015.9 |
| 20260904123044 | 69 | 122 | 3.0 | 16.0 | 0.00 | 0.34 | 0.03 | 87 | 1015.7 |
| 20260904121542 | 68 | 72 | 10.0 | 18.0 | 0.00 | 0.34 | 0.03 | 87 | 1015.6 |
| 20260904120105 | 68 | 347 | 4.0 | 13.0 | 0.00 | 0.34 | 0.03 | 85 | 1015.5 |
| 20260904114544 | 68 | 42 | 2.0 | 5.0 | 0.00 | 0.34 | 0.03 | 84 | 1015.2 |
| 20260904113044 | 68 | 53 | 1.0 | 5.0 | 0.00 | 0.34 | 0.03 | 84 | 1014.6 |
| 20260904111542 | 68 | 0 | 0.0 | 2.0 | 0.00 | 0.34 | 0.03 | 85 | 1014.2 |
| 20260904110048 | 68 | 0 | 0.0 | 2.0 | 0.00 | 0.34 | 0.03 | 85 | 1014.1 |
| 20260904104543 | 68 | 0 | 1.0 | 5.0 | 0.00 | 0.34 | 0.03 | 86 | 1014.0 |
| 20260904103043 | 68 | 70 | 2.0 | 5.0 | 0.00 | 0.34 | 0.03 | 86 | 1013.8 |
| 20260904101544 | 69 | 55 | 4.0 | 7.0 | 0.00 | 0.34 | 0.03 | 87 | 1014.2 |
| 20260904100049 | 69 | 36 | 5.0 | 12.0 | 0.01 | 0.34 | 0.03 | 87 | 1014.3 |
| 20260904094543 | 70 | 25 | 5.0 | 11.0 | 0.02 | 0.34 | 0.03 | 86 | 1014.5 |
| 20260904093042 | 71 | 261 | 5.0 | 13.0 | 0.02 | 0.34 | 0.03 | 85 | 1014.5 |
| 20260904091542 | 72 | 23 | 4.0 | 8.0 | 0.02 | 0.34 | 0.03 | 83 | 1014.2 |
| 20260904090050 | 72 | 85 | 0.0 | 2.0 | 0.01 | 0.33 | 0.02 | 84 | 1013.3 |